Flag for Dominican Republic Weather for the Past 2 Weeks in Santiago de los Caballeros, Dominican Republic

Now
72 °F

Passing clouds.


Feels Like: 65 °F
Forecast: 71 / 83 °F
Wind: 5 mph from Northwest

Location: Santiago

Current Time: Feb 11, 2016 at 7:31:56 AM

Latest Report: Feb 11, 2016 at 7:00 AM


Visibility: N/A

Pressure: 30.09 "Hg

Humidity: 100%

Dew point: 72 °F

Location of Santiago de los CaballerosLocation

Historic Weather in Santiago de los Caballeros — Graph

°F

Santiago de los Caballeros Temperature Yesterday

Maximum temperature yesterday: 88 °F (at 1:00 PM)
Minimum temperature yesterday: 66 °F (at 5:00 AM)
Average temperature yesterday: 77 °F

High & Low Weather Summary for the Past Weeks

 TemperatureHumidityPressure
High88 °F (Jan 31, 4:00 PM)100% (Jan 27, 6:00 AM)30.12 "Hg (Jan 27, 6:00 AM)
Low59 °F (Feb 5, 6:00 AM)33% (Feb 4, 3:00 PM)29.92 "Hg (Jan 28, 4:00 PM)
Average75 °F80%30.01 "Hg
* Reported Jan 27 6:00 AM — Feb 11 6:00 AM, Santiago de los Caballeros, Weather by CustomWeather, © 2016

Note: Actual official high and low records may vary slightly from our data, if they occured in-between our weather recording intervals... More about our weather records

Advertising

Santiago de los Caballeros Weather History for the Previous 24 Hours

 ConditionsComfort  
Time TempWeatherWind HumidityBarometerVisibility
6:00 AM
Thu, Feb 11
73 °FPassing clouds.No wind100%30.07 "HgN/A
5:00 AM73 °FPassing clouds.No wind94%30.07 "HgN/A
4:00 AM73 °FPassing clouds.No wind100%30.04 "HgN/A
3:00 AM73 °FPassing clouds.No wind100%30.07 "HgN/A
1:00 AM73 °FPassing clouds.No wind94%30.09 "HgN/A
12:00 AM73 °FPassing clouds.5 mph94%30.09 "HgN/A
11:00 PM
Wed, Feb 10
75 °FPassing clouds.No wind89%30.12 "HgN/A
10:00 PM75 °FPassing clouds.5 mph83%30.12 "HgN/A
9:00 PM77 °FPassing clouds.6 mph79%30.09 "HgN/A
8:00 PM81 °FPassing clouds.6 mph70%30.07 "HgN/A
7:00 PM81 °FPassing clouds.7 mph74%30.04 "HgN/A
6:00 PM84 °FPartly sunny.6 mph58%30.04 "HgN/A
5:00 PM86 °FScattered clouds.7 mph55%30.01 "HgN/A
4:00 PM88 °FPassing clouds.12 mph49%30.01 "HgN/A
3:00 PM88 °FPassing clouds.9 mph49%30.04 "HgN/A
2:00 PM88 °FPassing clouds.14 mph49%30.04 "HgN/A
1:00 PM88 °FPassing clouds.14 mph52%30.09 "HgN/A
12:00 PM82 °FPassing clouds.5 mph62%30.09 "HgN/A
11:00 AM81 °FPassing clouds.5 mph79%30.09 "HgN/A
10:00 AM75 °FScattered clouds.No wind89%30.07 "HgN/A
9:00 AM72 °FFog.3 mph100%30.12 "Hg2 mi
8:00 AM68 °FFog.3 mph100%30.09 "Hg2 mi
7:00 AM70 °FFog.No wind100%30.07 "Hg3 mi
Weather by CustomWeather, © 2016

See weather overviewHow to use our weather pages